DW6016 Weather Reports


time (UTC)temp
C
wind
direction
speed
KPH
gust
KPH
rain 1hr
cm
rain 24hr
cm
rain mn
cm
humidity
%
barometer
mb
20260903084357 12 303 0.0 0.0 0.00 0.08 0.08 99 1010.8
20260903083853 12 304 0.0 0.0 0.00 0.08 0.08 99 1010.7
20260903083349 12 303 0.0 0.0 0.00 0.08 0.08 99 1010.9
20260903082847 12 298 0.0 0.0 0.00 0.08 0.08 99 1010.9
20260903082342 12 301 0.0 0.0 0.13 0.08 0.08 99 1010.8
20260903081838 12 295 1.6 1.6 0.13 0.08 0.08 99 1010.9
20260903081333 12 304 0.0 0.0 0.00 0.05 0.05 99 1011.0
20260903080830 12 305 0.0 0.0 0.00 0.05 0.05 99 1011.0
20260903080327 12 306 0.0 0.0 0.00 0.05 0.05 99 1011.0
20260903075826 12 307 0.0 0.0 0.00 0.05 0.05 99 1011.3
20260903075321 12 330 0.0 0.0 0.00 0.05 0.05 99 1010.9
20260903074821 12 304 0.0 0.0 0.00 0.05 0.05 99 1010.8
20260903074315 12 291 1.6 1.6 0.18 0.05 0.05 99 1011.0
20260903073811 12 306 0.0 0.0 0.30 0.05 0.05 99 1011.0
20260903073306 12 304 0.0 0.0 0.13 0.03 0.03 99 1011.0
20260903072802 12 303 0.0 1.6 0.00 0.00 0.00 99 1010.8
20260903072258 12 303 0.0 0.0 0.00 0.00 0.00 99 1011.0
20260903071754 12 297 1.6 1.6 0.00 0.00 0.00 99 1010.9
20260903071250 12 199 1.6 1.6 0.00 0.00 0.00 99 1010.9
20260903070744 12 309 0.0 0.0 0.00 0.00 0.00 99 1010.7
20260903070240 12 298 0.0 0.0 0.00 0.00 0.00 99 1010.8
20260903065735 12 284 0.0 1.6 0.00 0.94 0.94 99 1010.9
20260903065234 12 304 0.0 0.0 0.00 0.94 0.94 99 1010.6
20260903064733 12 294 0.0 1.6 0.00 0.94 0.94 99 1010.7
20260903064228 12 299 0.0 0.0 0.00 0.94 0.94 99 1010.8
20260903063725 12 272 1.6 1.6 0.00 0.94 0.94 99 1010.7
20260903063219 12 306 0.0 0.0 0.00 0.94 0.94 99 1010.7
20260903062715 12 309 0.0 0.0 0.00 0.94 0.94 99 1010.8
20260903062215 12 313 0.0 0.0 0.00 0.94 0.94 99 1010.8
20260903061712 12 305 0.0 0.0 0.00 0.94 0.94 99 1011.0
20260903061209 12 307 0.0 0.0 0.00 0.94 0.94 99 1010.8
20260903060706 12 304 0.0 0.0 0.00 0.94 0.94 99 1010.9
20260903060200 12 302 0.0 0.0 0.00 0.94 0.94 99 1010.8
20260903055658 12 238 0.0 1.6 0.00 0.94 0.94 99 1010.6
20260903055156 12 298 0.0 1.6 0.00 0.94 0.94 99 1010.7
20260903054651 12 266 0.0 1.6 0.00 0.94 0.94 99 1010.7
20260903054147 12 300 0.0 0.0 0.00 0.94 0.94 99 1010.8
20260903053643 13 262 1.6 1.6 0.00 0.94 0.94 99 1011.0
20260903053138 13 308 0.0 0.0 0.00 0.94 0.94 99 1010.9
20260903052634 13 300 0.0 0.0 0.00 0.94 0.94 99 1010.7
20260903052129 13 301 0.0 0.0 0.00 0.94 0.94 99 1011.0
20260903051624 13 301 0.0 0.0 0.00 0.94 0.94 99 1010.8
20260903051120 13 309 0.0 0.0 0.00 0.94 0.94 99 1010.7
20260903050620 13 291 0.0 0.0 0.00 0.94 0.94 99 1010.8
20260903050115 12 234 0.0 1.6 0.00 0.94 0.94 99 1010.7
20260903045614 12 306 0.0 0.0 0.00 0.94 0.94 99 1010.7
20260903045110 12 306 0.0 0.0 0.00 0.94 0.94 99 1010.8
20260903044606 12 300 0.0 0.0 0.00 0.94 0.94 99 1010.8
20260903044102 13 302 0.0 0.0 0.00 0.94 0.94 99 1010.6
20260903043557 13 301 0.0 0.0 0.00 0.94 0.94 99 1010.7
20260903043057 13 304 0.0 0.0 0.00 0.94 0.94 99 1010.8
20260903042551 13 311 0.0 0.0 0.00 0.94 0.94 99 1010.6
20260903042047 13 310 0.0 0.0 0.00 0.94 0.94 99 1010.4
20260903041544 13 300 0.0 0.0 0.00 0.94 0.94 99 1010.4
20260903041038 13 320 0.0 0.0 0.00 0.94 0.94 99 1010.4
20260903040537 13 322 0.0 0.0 0.00 0.94 0.94 99 1010.3
20260903040034 13 302 0.0 0.0 0.00 0.94 0.94 99 1010.2
20260903035529 13 303 0.0 0.0 0.00 0.94 0.94 99 1010.3
20260903035025 13 303 0.0 0.0 0.00 0.94 0.94 99 1010.1
20260903034525 13 304 0.0 0.0 0.00 0.94 0.94 99 1009.9
20260903034020 13 304 0.0 0.0 0.00 0.94 0.94 99 1009.7
20260903033515 13 318 0.0 0.0 0.00 0.94 0.94 99 1009.7
20260903033011 13 307 0.0 0.0 0.00 0.94 0.94 99 1009.9
20260903032506 13 315 0.0 0.0 0.00 0.94 0.94 99 1009.8
20260903032001 14 310 0.0 0.0 0.00 0.94 0.94 99 1009.6
20260903031501 14 293 0.0 1.6 0.00 0.94 0.94 99 1009.6
20260903030956 14 307 0.0 0.0 0.00 0.94 0.94 99 1009.5
20260903030452 14 300 0.0 0.0 0.18 0.94 0.94 99 1009.5
20260903025947 14 225 1.6 3.2 0.18 0.94 0.94 99 1009.7
20260903025443 14 301 0.0 0.0 0.00 0.91 0.91 99 1009.6
20260903024938 14 301 1.6 1.6 0.00 0.91 0.91 99 1009.7
20260903024437 14 301 0.0 0.0 0.00 0.91 0.91 99 1009.4
20260903023932 15 305 0.0 0.0 0.00 0.91 0.91 99 1009.2
20260903023428 15 297 0.0 0.0 0.00 0.91 0.91 99 1009.1
20260903022923 15 268 1.6 3.2 0.00 0.91 0.91 99 1009.1
20260903022422 15 287 0.0 0.0 0.00 0.91 0.91 99 1009.2
20260903021920 15 291 0.0 1.6 0.00 0.91 0.91 99 1009.2
20260903021417 15 285 0.0 0.0 0.00 0.91 0.91 99 1009.3
20260903020916 15 281 1.6 1.6 0.00 0.91 0.91 99 1009.1
20260903020412 15 310 0.0 1.6 0.13 0.91 0.91 99 1009.1
20260903015907 15 302 0.0 0.0 0.13 0.91 0.91 99 1008.8
20260903015403 15 288 1.6 1.6 0.00 0.89 0.89 99 1008.9
20260903014858 15 287 0.0 0.0 0.00 0.89 0.89 99 1008.7
20260903014357 15 280 1.6 1.6 0.00 0.89 0.89 99 1008.8
20260903013852 15 300 0.0 0.0 0.00 0.89 0.89 99 1008.9
20260903013352 15 287 1.6 1.6 0.00 0.89 0.89 99 1008.9
20260903012851 15 301 1.6 1.6 0.00 0.89 0.89 99 1008.9
20260903012351 15 297 0.0 1.6 0.00 0.89 0.89 99 1008.8
20260903011849 15 299 0.0 0.0 0.00 0.89 0.89 99 1008.6
20260903011344 15 284 0.0 0.0 0.00 0.89 0.89 99 1008.5
20260903010840 15 232 1.6 1.6 0.00 0.89 0.89 99 1008.8
20260903010335 15 302 0.0 0.0 0.00 0.89 0.89 99 1008.6
20260903005833 15 274 1.6 1.6 0.00 0.89 0.89 99 1008.7
20260903005329 15 326 0.0 0.0 0.00 0.89 0.89 99 1008.5
20260903004824 15 321 0.0 0.0 0.18 0.89 0.89 99 1008.5
20260903004320 15 290 0.0 1.6 0.18 0.89 0.89 99 1008.5
20260903003816 15 307 0.0 0.0 0.00 0.86 0.86 99 1008.5
20260903003310 15 297 1.6 1.6 0.13 0.86 0.86 99 1008.2
20260903002810 15 346 1.6 1.6 0.13 0.86 0.86 99 1008.3
20260903002309 15 309 0.0 0.0 0.13 0.86 0.86 99 1008.3
20260903001804 15 303 0.0 0.0 0.00 0.84 0.84 99 1008.6
20260903001259 15 304 0.0 0.0 0.00 0.84 0.84 99 1008.1
20260903000754 15 300 1.6 1.6 0.00 0.84 0.84 99 1008.2
20260903000249 15 294 0.0 1.6 0.00 0.84 0.84 99 1008.3
20260902235747 15 303 0.0 0.0 0.00 0.84 0.84 99 1008.3
20260902235243 15 318 0.0 0.0 0.00 0.84 0.84 99 1008.2
20260902234742 15 316 0.0 1.6 0.00 0.84 0.84 99 1008.2
20260902234242 15 301 0.0 0.0 0.00 0.84 0.84 99 1008.2
20260902233742 15 308 1.6 1.6 0.00 0.84 0.84 99 1008.3
20260902233236 15 315 0.0 0.0 0.00 0.84 0.84 99 1008.0
20260902232735 15 307 0.0 0.0 0.00 0.84 0.84 99 1008.1
20260902232235 15 287 0.0 1.6 0.00 0.84 0.84 99 1008.3
20260902231734 15 313 0.0 0.0 0.00 0.84 0.84 99 1007.9
20260902231230 15 301 0.0 1.6 0.18 0.84 0.84 99 1007.9
20260902230724 15 300 0.0 1.6 0.18 0.84 0.84 99 1007.9
20260902230223 15 307 0.0 1.6 0.00 0.81 0.81 99 1008.0
20260902225718 15 306 0.0 0.0 0.00 0.81 0.81 99 1007.8
20260902225218 15 310 0.0 0.0 0.00 0.81 0.81 99 1007.8
20260902224717 15 310 0.0 1.6 0.00 0.81 0.81 99 1007.8
20260902224212 15 302 0.0 1.6 0.00 0.81 0.81 99 1007.5
20260902223708 15 287 1.6 3.2 0.00 0.81 0.81 99 1007.6
20260902223208 15 303 0.0 0.0 0.00 0.81 0.81 99 1007.6
20260902222707 15 297 0.0 0.0 0.00 0.81 0.81 99 1007.6
20260902222201 15 227 1.6 3.2 0.00 0.81 0.81 99 1007.7
20260902221655 15 305 0.0 0.0 0.00 0.81 0.81 99 1007.8
20260902221154 15 313 0.0 0.0 0.00 0.81 0.81 99 1007.7
20260902220650 15 270 0.0 1.6 0.00 0.81 0.81 99 1007.8
20260902220145 15 135 3.2 8.0 0.00 0.81 0.81 99 1007.6
20260902215641 15 195 0.0 3.2 0.00 0.81 0.81 99 1007.6
20260902215136 15 318 0.0 0.0 0.00 0.81 0.81 99 1007.7
20260902214631 15 306 0.0 0.0 0.00 0.81 0.81 99 1007.6
20260902214130 15 322 0.0 0.0 0.00 0.81 0.81 99 1007.6
20260902213626 15 315 0.0 0.0 0.00 0.81 0.81 99 1007.7
20260902213125 15 298 0.0 0.0 0.00 0.81 0.81 99 1007.5
20260902212621 15 305 0.0 0.0 0.00 0.81 0.81 99 1007.7
20260902212117 15 284 0.0 1.6 0.00 0.81 0.81 99 1007.6
20260902211613 15 316 0.0 0.0 0.00 0.81 0.81 99 1007.5
20260902211108 15 319 0.0 0.0 0.00 0.81 0.81 99 1007.5
20260902210607 15 316 0.0 0.0 0.00 0.81 0.81 99 1007.4
20260902205601 15 298 0.0 0.0 0.00 0.81 0.81 99 1007.5
20260902205057 15 73 0.0 0.0 0.18 0.81 0.81 99 1007.5
20260902204556 15 307 0.0 0.0 0.18 0.81 0.81 99 1007.3
20260902204051 15 321 0.0 0.0 0.00 0.79 0.79 99 1007.6
20260902203547 15 308 0.0 0.0 0.00 0.79 0.79 99 1007.2
20260902203046 15 314 0.0 0.0 0.00 0.79 0.79 99 1007.2
20260902202542 15 324 0.0 0.0 0.13 0.79 0.79 99 1007.3
20260902202038 15 93 4.8 8.0 0.30 0.79 0.79 99 1007.1
20260902201534 15 319 0.0 0.0 0.18 0.76 0.76 99 1007.2
20260902201033 15 308 0.0 0.0 0.30 0.76 0.76 99 1007.2
20260902200528 15 332 0.0 1.6 0.43 0.74 0.74 99 1007.0
20260902200024 15 325 0.0 0.0 0.48 0.71 0.71 99 1007.5
20260902195520 15 330 0.0 0.0 0.30 0.66 0.66 99 1007.4
20260902195019 15 5 0.0 1.6 0.30 0.64 0.64 99 1007.4
20260902194518 15 302 0.0 0.0 0.30 0.61 0.61 99 1007.5
20260902194014 15 348 0.0 1.6 0.61 0.61 0.61 99 1007.8
20260902193510 15 339 0.0 0.0 0.66 0.56 0.56 99 1007.5
20260902193009 15 311 0.0 0.0 0.48 0.51 0.51 99 1008.0
20260902192508 15 311 0.0 0.0 0.43 0.46 0.46 99 1007.7
20260902192007 15 303 0.0 0.0 0.48 0.43 0.43 99 1007.9
20260902191502 15 305 0.0 0.0 0.30 0.41 0.41 99 1007.8
20260902190957 15 310 0.0 0.0 0.30 0.38 0.38 99 1007.8
20260902190452 15 318 0.0 0.0 0.30 0.36 0.36 99 1007.7
20260902185948 15 333 0.0 1.6 0.30 0.33 0.33 99 1007.5
20260902185444 15 318 0.0 0.0 0.18 0.28 0.28 99 1007.6
20260902184939 15 308 0.0 0.0 0.18 0.28 0.28 98 1007.5
20260902184434 15 327 0.0 0.0 0.00 0.25 0.25 98 1007.7
20260902183930 15 326 0.0 0.0 0.13 0.25 0.25 98 1007.9
20260902183426 15 336 0.0 0.0 0.13 0.25 0.25 98 1007.9
20260902182921 15 327 0.0 0.0 0.18 0.23 0.23 97 1008.1
20260902182418 15 328 0.0 0.0 0.18 0.23 0.23 97 1008.3
20260902181914 15 303 0.0 0.0 0.13 0.20 0.20 97 1008.3
20260902181409 15 309 0.0 0.0 0.13 0.20 0.20 96 1008.4
20260902180903 15 310 0.0 0.0 0.18 0.18 0.18 96 1008.4
20260902180358 15 304 0.0 0.0 0.36 0.18 0.18 95 1008.5
20260902175853 15 289 0.0 0.0 0.30 0.15 0.15 95 1008.4
20260902175349 15 288 0.0 0.0 0.13 0.13 0.13 94 1008.4
20260902174844 16 298 0.0 0.0 0.18 0.10 0.10 93 1008.4
20260902174342 16 295 0.0 0.0 0.13 0.08 0.08 90 1008.3
20260902173837 16 295 0.0 0.0 0.30 0.08 0.08 89 1008.3
20260902173336 16 295 0.0 0.0 0.30 0.05 0.05 85 1008.3
20260902172831 17 295 0.0 0.0 0.13 0.03 0.03 84 1008.2
20260902172331 17 295 0.0 0.0 0.00 0.00 0.00 84 1007.9
20260902171825 17 295 0.0 0.0 0.00 0.00 0.00 82 1008.0
20260902171320 17 295 0.0 0.0 0.00 0.00 0.00 81 1007.9
20260902170812 17 295 0.0 0.0 0.00 0.00 0.00 80 1007.8
20260902170307 18 295 0.0 0.0 0.00 0.00 0.00 78 1007.7
20260902165803 18 295 0.0 0.0 0.00 0.00 0.00 77 1007.8
20260902165308 18 296 0.0 0.0 0.00 0.00 0.00 74 1007.8
20260902164756 18 296 0.0 0.0 0.00 0.00 0.00 74 1007.6
20260902164251 18 296 0.0 0.0 0.00 0.00 0.00 74 1007.7
20260902163746 18 296 0.0 0.0 0.00 0.00 0.00 72 1007.8
20260902163245 18 295 0.0 0.0 0.00 0.00 0.00 71 1007.5
20260902162744 18 298 0.0 0.0 0.00 0.00 0.00 72 1007.6
20260902162239 18 299 0.0 0.0 0.00 0.00 0.00 71 1007.6
20260902161734 18 304 0.0 0.0 0.00 0.00 0.00 72 1007.4
20260902161229 18 307 0.0 0.0 0.00 0.00 0.00 73 1007.8
20260902160726 17 310 0.0 0.0 0.00 0.00 0.00 73 1007.6
20260902160220 17 312 0.0 0.0 0.00 0.00 0.00 74 1007.7
20260902155718 17 314 0.0 0.0 0.00 0.00 0.00 74 1007.6
20260902155217 17 308 0.0 1.6 0.00 0.00 0.00 75 1007.8
20260902154712 17 297 0.0 0.0 0.00 0.00 0.00 74 1008.1
20260902154207 17 298 0.0 0.0 0.00 0.00 0.00 76 1007.8
20260902153706 17 298 0.0 0.0 0.00 0.00 0.00 75 1007.9
20260902153201 17 303 0.0 0.0 0.00 0.00 0.00 76 1008.0
20260902152657 17 318 0.0 0.0 0.00 0.00 0.00 76 1007.9
20260902152152 17 312 0.0 0.0 0.00 0.00 0.00 77 1008.1
20260902151648 17 329 0.0 0.0 0.00 0.00 0.00 76 1008.0
20260902151142 17 322 0.0 0.0 0.00 0.00 0.00 76 1008.0
20260902150638 16 322 0.0 0.0 0.00 0.00 0.00 78 1008.2
20260902150133 16 326 0.0 0.0 0.00 0.00 0.00 79 1008.1
20260902145632 16 320 0.0 0.0 0.00 0.00 0.00 78 1008.2
20260902145132 16 321 0.0 0.0 0.00 0.00 0.00 77 1008.4
20260902144629 16 311 1.6 1.6 0.00 0.00 0.00 78 1008.5
20260902144124 16 304 0.0 0.0 0.00 0.00 0.00 78 1008.6
20260902143619 16 304 0.0 0.0 0.00 0.00 0.00 78 1008.4
20260902143115 16 297 0.0 0.0 0.00 0.00 0.00 78 1008.7
20260902142610 16 310 0.0 0.0 0.00 0.00 0.00 78 1008.5
20260902142106 16 308 0.0 0.0 0.00 0.00 0.00 78 1008.6
20260902141605 16 327 0.0 0.0 0.00 0.00 0.00 78 1008.7
20260902141101 15 337 0.0 0.0 0.00 0.00 0.00 79 1008.8
20260902140555 15 330 0.0 0.0 0.00 0.00 0.00 80 1008.6
20260902140051 15 307 0.0 0.0 0.00 0.00 0.00 82 1009.0
20260902135551 15 308 0.0 0.0 0.00 0.00 0.00 81 1008.8
20260902135051 15 298 0.0 0.0 0.00 0.00 0.00 82 1008.9
20260902134547 15 298 0.0 0.0 0.00 0.00 0.00 82 1009.0
20260902134047 15 298 0.0 0.0 0.00 0.00 0.00 82 1009.0
20260902133547 15 298 0.0 0.0 0.00 0.00 0.00 82 1009.2
20260902133041 15 298 0.0 0.0 0.00 0.00 0.00 82 1009.0
20260902132537 15 298 0.0 0.0 0.00 0.00 0.00 82 1009.3
20260902132032 15 298 0.0 0.0 0.00 0.00 0.00 82 1009.4
20260902131528 15 298 0.0 0.0 0.00 0.00 0.00 82 1009.4
20260902131028 15 298 0.0 0.0 0.00 0.00 0.00 82 1009.6
20260902130524 15 298 0.0 0.0 0.00 0.00 0.00 82 1009.6
20260902130019 15 298 0.0 0.0 0.00 0.00 0.00 82 1009.6
20260902125515 15 298 0.0 0.0 0.00 0.00 0.00 82 1009.7
20260902125010 15 298 0.0 0.0 0.00 0.00 0.00 83 1009.9
20260902124507 15 298 0.0 0.0 0.00 0.00 0.00 82 1009.9
20260902124002 15 298 0.0 0.0 0.00 0.00 0.00 82 1009.8
20260902123458 15 298 0.0 0.0 0.00 0.00 0.00 82 1010.1
20260902122956 15 298 0.0 0.0 0.00 0.00 0.00 83 1010.1
20260902122452 15 298 0.0 0.0 0.00 0.00 0.00 82 1010.4
20260902121947 15 298 0.0 0.0 0.00 0.00 0.00 82 1010.1
20260902121448 15 299 0.0 0.0 0.00 0.00 0.00 83 1010.2
20260902120942 15 298 0.0 0.0 0.00 0.00 0.00 83 1010.5
20260902120439 15 298 0.0 0.0 0.00 0.00 0.00 83 1010.6
20260902115938 15 299 0.0 0.0 0.00 0.00 0.00 84 1010.4
20260902115435 15 299 0.0 0.0 0.00 0.00 0.00 84 1010.4
20260902114931 15 299 0.0 0.0 0.00 0.00 0.00 85 1010.6
20260902114426 15 299 0.0 0.0 0.00 0.00 0.00 85 1010.7
20260902113921 15 299 0.0 0.0 0.00 0.00 0.00 85 1010.5
20260902113417 15 299 0.0 0.0 0.00 0.00 0.00 84 1010.8
20260902112916 15 298 0.0 0.0 0.00 0.00 0.00 84 1010.8
20260902112413 15 308 0.0 0.0 0.00 0.00 0.00 84 1010.8
20260902111908 15 308 0.0 0.0 0.00 0.00 0.00 84 1010.9
20260902111404 15 308 0.0 0.0 0.00 0.00 0.00 84 1011.0
20260902110900 15 308 0.0 0.0 0.00 0.00 0.00 84 1010.9
20260902110356 15 308 0.0 0.0 0.00 0.00 0.00 84 1010.8
20260902105855 15 308 0.0 0.0 0.00 0.00 0.00 84 1011.1
20260902105350 15 308 0.0 0.0 0.00 0.00 0.00 84 1010.9
20260902104846 15 308 0.0 0.0 0.00 0.00 0.00 84 1011.1
20260902104342 15 308 0.0 0.0 0.00 0.00 0.00 84 1011.0
20260902103841 15 308 0.0 0.0 0.00 0.00 0.00 83 1011.2
20260902103337 15 308 0.0 0.0 0.00 0.00 0.00 83 1011.1
20260902102832 15 308 0.0 0.0 0.00 0.00 0.00 83 1011.3
20260902102330 15 307 0.0 0.0 0.00 0.00 0.00 83 1011.2
20260902101825 15 307 0.0 0.0 0.00 0.00 0.00 83 1011.2
20260902101325 15 332 0.0 0.0 0.00 0.00 0.00 83 1011.2
20260902100824 15 328 0.0 0.0 0.00 0.00 0.00 83 1011.3
20260902100318 15 345 0.0 0.0 0.00 0.00 0.00 83 1011.3
20260902095813 15 313 0.0 0.0 0.00 0.00 0.00 83 1011.5
20260902095308 15 329 0.0 0.0 0.00 0.00 0.00 83 1011.5
20260902094802 15 241 3.2 4.8 0.00 0.00 0.00 83 1011.2
20260902094259 15 301 0.0 0.0 0.00 0.00 0.00 83 1011.5
20260902093758 15 332 0.0 0.0 0.00 0.00 0.00 83 1011.3
20260902093253 15 316 0.0 0.0 0.00 0.00 0.00 83 1011.5
20260902092752 15 313 1.6 1.6 0.00 0.00 0.00 84 1011.8
20260902092248 15 301 0.0 0.0 0.00 0.00 0.00 84 1011.7
20260902091747 15 300 1.6 1.6 0.00 0.00 0.00 84 1011.7
20260902091244 15 318 0.0 0.0 0.00 0.00 0.00 85 1011.9
20260902090740 15 322 1.6 1.6 0.00 0.00 0.00 86 1012.0
20260902090239 15 307 0.0 1.6 0.00 0.00 0.00 86 1011.9
20260902085733 15 329 0.0 0.0 0.00 0.00 0.00 86 1012.1
20260902085229 15 298 0.0 0.0 0.00 0.00 0.00 85 1012.1
20260902084724 15 298 0.0 0.0 0.00 0.00 0.00 85 1011.9